Regional Weather Roundup
Issued by NWS State College, PA

Home | Current Version | Previous Version | Graphics & Text | Print | Product List | Glossary On
Versions: 1 2 3 4 5 6 7 8 9 10 11 12 13 14 15 16 17 18 19 20 21 22 23 24 25 26 27 28 29 30 31 32 33 34 35 36 37 38 39 40 41 42 43 44 45 46 47 48 49 50
000
ASUS41 KCTP 252303
RWRCTP

REGIONAL WEATHER ROUNDUP
NATIONAL WEATHER SERVICE STATE COLLEGE PA
700 PM EDT WED MAY 25 2016

Note: "fair" indicates few or no clouds below 12,000 feet with no
significant weather and/or obstructions to visibility.

* = STATION THAT DOES NOT REPORT PRECIPITATION /E.G. RAIN...SNOW...ETC/
    THUNDER OR FOG.

PAZ002>004-007>009-013>016-020>023-029>032-260000-
WESTERN PENNSYLVANIA

CITY           SKY/WX    TMP DP  RH WIND       PRES   REMARKS
ERIE           SUNNY     80  52  37 CALM      30.07F
MEADVILLE      SUNNY     78  47  33 S6        30.10S
FRANKLIN*      SUNNY     79  46  31 SW6       30.13F
NEW CASTLE     FAIR      80  53  39 SW6       30.11S
BEAVER COUNTY  PTSUNNY   77  50  38 SW3       30.12F
BUTLER*        SUNNY     79  50  36 W7        30.14F
PITTSBURGH INT CLOUDY    82  48  30 SW8       30.11F
PITTSBURGH     SUNNY     80  47  31 W8        30.11F
INDIANA*       SUNNY     79  52  38 W6        30.16S
LATROBE        SUNNY     79  48  34 W7        30.13S
WASHINGTON CO* SUNNY     79  54  41 SW5       30.13S
$$

PAZ004>006-010>012-017>019-024>028-033>037-041-042-045-046-049>053-260000-
CENTRAL PENNSYLVANIA

CITY           SKY/WX    TMP DP  RH WIND       PRES   REMARKS
BRADFORD       SUNNY     79  42  26 W8        30.12F
DUBOIS         SUNNY     77  46  33 SW7       30.13S
CLEARFIELD     SUNNY     80  46  30 W5        30.12F
JOHNSTOWN      SUNNY     76  44  32 W5        30.16F
ALTOONA        SUNNY     80  46  30 NW8       30.13S
STATE COLLEGE  SUNNY     79  50  36 W7        30.10S
WILLIAMSPORT   SUNNY     85  46  25 W12       30.02F
SELINSGROVE    SUNNY     84  49  29 SW6       30.05F
FT INDIANTOWN  NOT AVBL
CAPITAL CITY   MOSUNNY   83  49  30 S9        30.07F
HARRISBURG     MOSUNNY   80  54  40 SW7       30.06F
YORK           MOSUNNY   78  56  46 S5        30.09F
$$

PAZ038>040-043-044-047-048-054-055-060>062-067>071-260000-
EASTERN PENNSYLVANIA

CITY           SKY/WX    TMP DP  RH WIND       PRES   REMARKS
SCRANTON       SUNNY     83  48  29 SW12      30.05S
MOUNT POCONO   SUNNY     72  45  37 W9        30.11S
ALLENTOWN      SUNNY     83  47  28 SW15      30.05S
QUAKERTOWN*    CLEAR     82  48  30 W6        30.08S
READING        SUNNY     83  48  29 SW9       30.06S
LANCASTER      SUNNY     81  49  32 W7        30.08S
COATESVILLE    CLEAR     81  48  32 CALM      30.11S
POTTSTOWN      SUNNY     83  47  28 SW6       30.08S
BLUE BELL      SUNNY     81  46  30 W6        30.06F
DOYLESTOWN     SUNNY     82  42  24 SW9       30.06S
WILLOW GROVE   NOT AVBL
NORTH PHILA    SUNNY     84  48  28 W10       30.07S
PHILADELPHIA   PTSUNNY   84  47  27 SW13      30.07S
$$




USA.gov is the U.S. government's official web portal to all federal, state and local government web resources and services.